Weather reports worldwide

Advertisment
Tampico/Tamps, Mexico (76548): temperature & dewpoint: 03.12.2018 21:00:00 - 09.12.2018 21:00:00 (CST)Tampico/Tamps, Mexico (76548): wind speed: 03.12.2018 21:00:00 - 09.12.2018 21:00:00 (CST)Tampico/Tamps, Mexico (76548): wind direction: 03.12.2018 21:00:00 - 09.12.2018 21:00:00 (CST)Tampico/Tamps, Mexico (76548): reduced air pressure: 03.12.2018 21:00:00 - 09.12.2018 21:00:00 (CST)Tampico/Tamps, Mexico (76548): visibility: 03.12.2018 21:00:00 - 09.12.2018 21:00:00 (CST)
Date & Time tt [°C] td [°C] ff [km/h] ff [kn] dd ppp [hPa] vv [km]
09.12.2018 21:00:00 16,8 11,0 14 8 N 1028,6 10
09.12.2018 20:00:00 - - - - - - -
09.12.2018 19:00:00 - - - - - - -
09.12.2018 18:00:00 17,2 13,3 18 10 NE 1026,8 25
09.12.2018 17:00:00 - - - - - - -
09.12.2018 16:00:00 - - - - - - -
09.12.2018 15:00:00 19,6 12,7 18 10 NE 1025,6 25
09.12.2018 14:00:00 - - - - - - -
09.12.2018 13:00:00 - - - - - - -
09.12.2018 12:00:00 18,2 11,8 25 14 N 1027,3 25
09.12.2018 11:00:00 - - - - - - -
09.12.2018 10:00:00 - - - - - - -
09.12.2018 09:00:00 15,4 10,4 18 10 N 1027,0 25
09.12.2018 08:00:00 - - - - - - -
09.12.2018 07:00:00 - - - - - - -
09.12.2018 06:00:00 15,4 11,7 25 14 N 1024,3 10
09.12.2018 05:00:00 - - - - - - -
09.12.2018 04:00:00 - - - - - - -
09.12.2018 03:00:00 15,6 12,9 29 16 N 1023,7 10
09.12.2018 02:00:00 - - - - - - -
09.12.2018 01:00:00 - - - - - - -
09.12.2018 00:00:00 15,8 13,8 29 16 N 1024,3 10
08.12.2018 23:00:00 - - - - - - -
08.12.2018 22:00:00 - - - - - - -
08.12.2018 21:00:00 17,2 14,3 29 16 N 1021,7 10
08.12.2018 20:00:00 - - - - - - -
08.12.2018 19:00:00 - - - - - - -
08.12.2018 18:00:00 19,2 15,1 25 14 N 1017,7 22
08.12.2018 17:00:00 - - - - - - -
08.12.2018 16:00:00 - - - - - - -
08.12.2018 15:00:00 21,6 17,4 25 14 N 1016,8 24
08.12.2018 14:00:00 - - - - - - -
08.12.2018 13:00:00 - - - - - - -
08.12.2018 12:00:00 22,2 19,6 11 6 NE 1018,7 22
08.12.2018 11:00:00 - - - - - - -
08.12.2018 10:00:00 - - - - - - -
08.12.2018 09:00:00 19,8 18,6 11 6 NE 1019,1 20
08.12.2018 08:00:00 - - - - - - -
08.12.2018 07:00:00 - - - - - - -
08.12.2018 06:00:00 22,4 22,1 4 2 NE 1017,5 10
08.12.2018 05:00:00 - - - - - - -
08.12.2018 04:00:00 - - - - - - -
08.12.2018 03:00:00 22,0 21,7 4 2 WSW 1017,9 10
08.12.2018 02:00:00 - - - - - - -
08.12.2018 01:00:00 - - - - - - -
08.12.2018 00:00:00 22,2 21,0 4 2 SE 1018,7 10
07.12.2018 23:00:00 - - - - - - -
07.12.2018 22:00:00 - - - - - - -
07.12.2018 21:00:00 22,8 20,8 4 2 ESE 1018,1 10
07.12.2018 20:00:00 - - - - - - -
07.12.2018 19:00:00 - - - - - - -
07.12.2018 18:00:00 25,0 22,2 11 6 ESE 1017,0 20
07.12.2018 17:00:00 - - - - - - -
07.12.2018 16:00:00 - - - - - - -
07.12.2018 15:00:00 25,8 19,1 4 2 SE 1018,3 22
07.12.2018 14:00:00 - - - - - - -
07.12.2018 13:00:00 - - - - - - -
07.12.2018 12:00:00 28,0 20,9 4 2 SSE 1020,7 22
07.12.2018 11:00:00 - - - - - - -
07.12.2018 10:00:00 - - - - - - -
07.12.2018 09:00:00 22,0 20,3 0 0 N 1022,8 20
07.12.2018 08:00:00 - - - - - - -
07.12.2018 07:00:00 - - - - - - -
07.12.2018 06:00:00 21,4 20,5 0 0 N 1021,6 10
07.12.2018 05:00:00 - - - - - - -
07.12.2018 04:00:00 - - - - - - -
07.12.2018 03:00:00 22,0 20,8 4 2 SE 1021,5 10
07.12.2018 02:00:00 - - - - - - -
07.12.2018 01:00:00 - - - - - - -
07.12.2018 00:00:00 21,6 19,9 4 2 ESE 1021,0 10
06.12.2018 23:00:00 - - - - - - -
06.12.2018 22:00:00 - - - - - - -
06.12.2018 21:00:00 22,2 20,2 7 4 ESE 1021,7 10
06.12.2018 20:00:00 - - - - - - -
06.12.2018 19:00:00 - - - - - - -
06.12.2018 18:00:00 25,6 20,7 7 4 ESE 1020,5 20
06.12.2018 17:00:00 - - - - - - -
06.12.2018 16:00:00 - - - - - - -
06.12.2018 15:00:00 27,2 20,6 4 2 W 1020,9 22
06.12.2018 14:00:00 - - - - - - -
06.12.2018 13:00:00 - - - - - - -
06.12.2018 12:00:00 22,6 17,2 7 4 W 1024,5 22
06.12.2018 11:00:00 - - - - - - -
06.12.2018 10:00:00 - - - - - - -
06.12.2018 09:00:00 19,6 17,8 7 4 W 1024,9 22
06.12.2018 08:00:00 - - - - - - -
06.12.2018 07:00:00 - - - - - - -
06.12.2018 06:00:00 18,8 17,9 4 2 NW 1023,3 10
06.12.2018 05:00:00 - - - - - - -
06.12.2018 04:00:00 - - - - - - -
06.12.2018 03:00:00 18,8 17,3 4 2 N 1023,4 10
06.12.2018 02:00:00 - - - - - - -
06.12.2018 01:00:00 - - - - - - -
06.12.2018 00:00:00 19,0 17,2 7 4 N 1025,7 10
05.12.2018 23:00:00 - - - - - - -
05.12.2018 22:00:00 - - - - - - -
05.12.2018 21:00:00 19,0 17,2 7 4 N 1025,6 10
05.12.2018 20:00:00 - - - - - - -
05.12.2018 19:00:00 - - - - - - -
05.12.2018 18:00:00 20,2 17,2 11 6 N 1024,6 18
05.12.2018 17:00:00 - - - - - - -
05.12.2018 16:00:00 - - - - - - -
05.12.2018 15:00:00 20,4 16,7 11 6 NE 1024,4 20
05.12.2018 14:00:00 - - - - - - -
05.12.2018 13:00:00 - - - - - - -
05.12.2018 12:00:00 21,6 15,0 11 6 N 1026,3 24
05.12.2018 11:00:00 - - - - - - -
05.12.2018 10:00:00 - - - - - - -
05.12.2018 09:00:00 20,4 16,7 18 10 N 1026,3 20
05.12.2018 08:00:00 - - - - - - -
05.12.2018 07:00:00 - - - - - - -
05.12.2018 06:00:00 20,2 17,2 22 12 N 1024,7 10
05.12.2018 05:00:00 - - - - - - -
05.12.2018 04:00:00 - - - - - - -
05.12.2018 03:00:00 20,0 17,0 18 10 N 1023,7 10
05.12.2018 02:00:00 - - - - - - -
05.12.2018 01:00:00 - - - - - - -
05.12.2018 00:00:00 20,2 16,2 18 10 N 1024,1 10
04.12.2018 23:00:00 - - - - - - -
04.12.2018 22:00:00 - - - - - - -
04.12.2018 21:00:00 21,2 17,3 22 12 N 1023,5 10
04.12.2018 20:00:00 - - - - - - -
04.12.2018 19:00:00 - - - - - - -
04.12.2018 18:00:00 22,8 17,7 14 8 E 1021,1 20
04.12.2018 17:00:00 - - - - - - -
04.12.2018 16:00:00 - - - - - - -
04.12.2018 15:00:00 24,8 17,0 22 12 E 1021,2 22
04.12.2018 14:00:00 - - - - - - -
04.12.2018 13:00:00 - - - - - - -
04.12.2018 12:00:00 24,2 17,3 22 12 NE 1023,3 22
04.12.2018 11:00:00 - - - - - - -
04.12.2018 10:00:00 - - - - - - -
04.12.2018 09:00:00 20,2 14,1 14 8 NE 1023,1 22
04.12.2018 08:00:00 - - - - - - -
04.12.2018 07:00:00 - - - - - - -
04.12.2018 06:00:00 19,0 14,2 22 12 NE 1019,7 10
04.12.2018 05:00:00 - - - - - - -
04.12.2018 04:00:00 - - - - - - -
04.12.2018 03:00:00 21,0 17,7 25 14 NE 1019,6 10
04.12.2018 02:00:00 - - - - - - -
04.12.2018 01:00:00 - - - - - - -
04.12.2018 00:00:00 22,0 19,4 29 16 NNE 1020,3 10
03.12.2018 23:00:00 - - - - - - -
03.12.2018 22:00:00 - - - - - - -
03.12.2018 21:00:00 22,8 20,2 25 14 N 1019,2 10

tt = temperature
td = dewpoint
ff = wind speed
dd = wind direction
ppp = reduced air pressure
vv = visibility

Next stations